Time,TemperatureF,DewpointF,PressureIn,WindDirection,WindDirectionDegrees,WindSpeedMPH,WindSpeedGustMPH,Humidity,HourlyPrecipIn,Conditions,Clouds,dailyrainin,SoftwareType,DateUTC
2013-01-10 00:00:00,30.6,22.2,30.40,North,0,0.0,0.0,71,0.00,,,0.00,WUHU21623XXSP,2013-01-10 05:00:00,
2013-01-10 00:01:00,30.6,22.2,30.40,North,0,0.0,0.0,71,0.00,,,0.00,WUHU21623XXSP,2013-01-10 05:01:00,
2013-01-10 00:02:00,30.6,22.2,30.40,North,0,0.0,0.0,71,0.00,,,0.00,WUHU21623XXSP,2013-01-10 05:02:00,
2013-01-10 00:03:00,30.6,22.2,30.40,North,0,0.0,0.0,71,0.00,,,0.00,WUHU21623XXSP,2013-01-10 05:03:00,
2013-01-10 00:08:00,30.0,22.0,30.41,North,0,0.0,0.0,72,0.00,,,0.00,WUHU21623XXSP,2013-01-10 05:08:00,
2013-01-10 00:13:00,30.0,22.0,30.41,North,0,0.0,0.0,72,0.00,,,0.00,WUHU21623XXSP,2013-01-10 05:13:00,
2013-01-10 00:18:00,29.5,21.7,30.41,North,0,0.0,0.0,72,0.00,,,0.00,WUHU21623XXSP,2013-01-10 05:18:00,
2013-01-10 00:23:00,29.5,21.5,30.42,North,0,0.0,0.0,72,0.00,,,0.00,WUHU21623XXSP,2013-01-10 05:23:00,
2013-01-10 00:28:00,29.3,21.7,30.42,North,0,0.0,0.0,73,0.00,,,0.00,WUHU21623XXSP,2013-01-10 05:28:00,
2013-01-10 00:33:00,29.1,21.8,30.43,North,0,0.0,0.0,74,0.00,,,0.00,WUHU21623XXSP,2013-01-10 05:33:00,
2013-01-10 00:38:00,29.1,21.8,30.43,North,0,0.0,0.0,74,0.00,,,0.00,WUHU21623XXSP,2013-01-10 05:38:00,
2013-01-10 00:43:00,29.1,21.8,30.43,North,0,0.0,0.0,74,0.00,,,0.00,WUHU21623XXSP,2013-01-10 05:43:00,
2013-01-10 00:48:00,28.9,22.0,30.44,SW,225,0.0,0.0,75,0.00,,,0.00,WUHU21623XXSP,2013-01-10 05:48:00,
2013-01-10 00:53:00,28.9,22.0,30.44,SSW,202,0.0,0.0,75,0.00,,,0.00,WUHU21623XXSP,2013-01-10 05:53:00,
2013-01-10 00:58:00,28.9,22.3,30.45,SSW,202,0.0,0.0,76,0.00,,,0.00,WUHU21623XXSP,2013-01-10 05:58:00,
2013-01-10 01:03:00,28.9,22.3,30.45,SSW,202,0.0,0.0,76,0.00,,,0.00,WUHU21623XXSP,2013-01-10 06:03:00,
2013-01-10 01:08:00,28.9,22.6,30.45,SSE,157,2.0,2.0,77,0.00,,,0.00,WUHU21623XXSP,2013-01-10 06:08:00,
2013-01-10 01:13:00,29.1,22.8,30.45,South,180,1.6,4.0,77,0.00,,,0.00,WUHU21623XXSP,2013-01-10 06:13:00,
2013-01-10 01:18:00,29.1,23.1,30.47,SSW,202,1.8,4.0,78,0.00,,,0.00,WUHU21623XXSP,2013-01-10 06:18:00,
2013-01-10 01:23:00,29.1,23.1,30.47,SSW,202,0.0,2.2,78,0.00,,,0.00,WUHU21623XXSP,2013-01-10 06:23:00,
2013-01-10 01:28:00,29.3,23.3,30.47,South,180,2.0,2.2,78,0.00,,,0.00,WUHU21623XXSP,2013-01-10 06:28:00,
2013-01-10 01:33:00,29.3,23.3,30.48,South,180,1.8,2.0,78,0.00,,,0.00,WUHU21623XXSP,2013-01-10 06:33:00,
2013-01-10 01:38:00,29.3,23.3,30.48,South,180,0.0,2.0,78,0.00,,,0.00,WUHU21623XXSP,2013-01-10 06:38:00,
2013-01-10 01:43:00,29.1,23.1,30.48,SSW,202,0.0,1.6,78,0.00,,,0.00,WUHU21623XXSP,2013-01-10 06:43:00,
2013-01-10 01:48:00,29.1,23.1,30.49,SSW,202,1.6,3.6,78,0.00,,,0.00,WUHU21623XXSP,2013-01-10 06:48:00,
2013-01-10 01:53:00,29.1,23.1,30.49,South,180,1.3,3.6,78,0.00,,,0.00,WUHU21623XXSP,2013-01-10 06:53:00,
2013-01-10 01:58:00,29.1,23.1,30.50,South,180,2.0,2.0,78,0.00,,,0.00,WUHU21623XXSP,2013-01-10 06:58:00,
2013-01-10 02:03:00,29.1,23.1,30.50,South,180,2.5,2.5,78,0.00,,,0.00,WUHU21623XXSP,2013-01-10 07:03:00,
2013-01-10 02:08:00,29.1,23.1,30.50,South,180,2.5,2.5,78,0.00,,,0.00,WUHU21623XXSP,2013-01-10 07:08:00,
2013-01-10 02:13:00,28.9,23.2,30.50,SW,225,1.1,2.5,79,0.00,,,0.00,WUHU21623XXSP,2013-01-10 07:13:00,
2013-01-10 02:18:00,28.8,23.2,30.51,South,180,1.8,2.5,79,0.00,,,0.00,WUHU21623XXSP,2013-01-10 07:18:00,
2013-01-10 02:23:00,28.8,23.0,30.51,South,180,2.5,2.5,79,0.00,,,0.00,WUHU21623XXSP,2013-01-10 07:23:00,
2013-01-10 02:28:00,28.8,23.0,30.52,SSW,202,2.2,2.5,79,0.00,,,0.00,WUHU21623XXSP,2013-01-10 07:28:00,
2013-01-10 02:33:00,28.8,22.9,30.52,SSW,202,2.2,2.2,79,0.00,,,0.00,WUHU21623XXSP,2013-01-10 07:33:00,
2013-01-10 02:38:00,28.6,22.9,30.52,SSW,202,0.0,2.2,79,0.00,,,0.00,WUHU21623XXSP,2013-01-10 07:38:00,
2013-01-10 02:43:00,28.6,22.9,30.52,SSW,202,0.7,2.0,79,0.00,,,0.00,WUHU21623XXSP,2013-01-10 07:43:00,
2013-01-10 02:48:00,28.6,22.9,30.52,SSW,202,0.0,2.0,79,0.00,,,0.00,WUHU21623XXSP,2013-01-10 07:48:00,
2013-01-10 02:53:00,28.6,22.9,30.52,SSW,202,2.0,2.0,79,0.00,,,0.00,WUHU21623XXSP,2013-01-10 07:53:00,
2013-01-10 02:58:00,28.6,22.9,30.52,SSW,202,2.0,2.0,79,0.00,,,0.00,WUHU21623XXSP,2013-01-10 07:58:00,
2013-01-10 03:03:00,28.4,22.7,30.52,SSW,202,1.1,2.0,79,0.00,,,0.00,WUHU21623XXSP,2013-01-10 08:03:00,
2013-01-10 03:08:00,28.4,22.5,30.53,SSW,202,1.6,1.6,79,0.00,,,0.00,WUHU21623XXSP,2013-01-10 08:08:00,
2013-01-10 03:13:00,28.2,22.8,30.52,SSW,202,1.8,1.8,80,0.00,,,0.00,WUHU21623XXSP,2013-01-10 08:13:00,
2013-01-10 03:18:00,28.2,22.8,30.52,SSW,202,0.9,1.8,80,0.00,,,0.00,WUHU21623XXSP,2013-01-10 08:18:00,
2013-01-10 03:23:00,28.2,22.8,30.52,SSW,202,0.0,1.8,80,0.00,,,0.00,WUHU21623XXSP,2013-01-10 08:23:00,
2013-01-10 03:28:00,28.2,22.8,30.52,SSW,202,0.0,1.3,80,0.00,,,0.00,WUHU21623XXSP,2013-01-10 08:28:00,
2013-01-10 03:33:00,28.2,22.8,30.52,SSW,202,0.0,1.3,80,0.00,,,0.00,WUHU21623XXSP,2013-01-10 08:33:00,
2013-01-10 03:38:00,28.0,22.6,30.51,SSW,202,0.0,0.0,80,0.00,,,0.00,WUHU21623XXSP,2013-01-10 08:38:00,
2013-01-10 03:43:00,28.0,22.6,30.51,SSW,202,0.0,2.0,80,0.00,,,0.00,WUHU21623XXSP,2013-01-10 08:43:00,
2013-01-10 03:48:00,28.0,22.6,30.52,SSW,202,0.0,2.0,80,0.00,,,0.00,WUHU21623XXSP,2013-01-10 08:48:00,
2013-01-10 03:53:00,27.7,22.3,30.52,SSW,202,0.0,0.0,80,0.00,,,0.00,WUHU21623XXSP,2013-01-10 08:53:00,
2013-01-10 03:58:00,27.7,22.3,30.51,SSW,202,0.0,0.0,80,0.00,,,0.00,WUHU21623XXSP,2013-01-10 08:58:00,
2013-01-10 04:03:00,27.5,22.1,30.51,SSW,202,0.0,0.0,80,0.00,,,0.00,WUHU21623XXSP,2013-01-10 09:03:00,
2013-01-10 04:08:00,27.3,21.9,30.51,SSW,202,0.0,0.0,80,0.00,,,0.00,WUHU21623XXSP,2013-01-10 09:08:00,
2013-01-10 04:13:00,27.1,21.7,30.51,SSW,202,0.0,0.0,80,0.00,,,0.00,WUHU21623XXSP,2013-01-10 09:13:00,
2013-01-10 04:18:00,27.0,21.6,30.50,SSW,202,0.0,0.0,80,0.00,,,0.00,WUHU21623XXSP,2013-01-10 09:18:00,
2013-01-10 04:23:00,26.8,21.4,30.50,SSW,202,0.0,0.0,80,0.00,,,0.00,WUHU21623XXSP,2013-01-10 09:23:00,
2013-01-10 04:28:00,26.6,21.2,30.50,SSW,202,0.0,0.0,80,0.00,,,0.00,WUHU21623XXSP,2013-01-10 09:28:00,
2013-01-10 04:33:00,26.2,20.9,30.50,SSW,202,0.0,0.0,80,0.00,,,0.00,WUHU21623XXSP,2013-01-10 09:33:00,
2013-01-10 04:38:00,26.2,20.9,30.50,SSW,202,0.0,0.0,80,0.00,,,0.00,WUHU21623XXSP,2013-01-10 09:38:00,
2013-01-10 04:43:00,26.1,20.7,30.50,SSW,202,0.0,0.0,80,0.00,,,0.00,WUHU21623XXSP,2013-01-10 09:43:00,
2013-01-10 04:48:00,25.7,20.4,30.50,SSW,202,0.0,0.0,80,0.00,,,0.00,WUHU21623XXSP,2013-01-10 09:48:00,
2013-01-10 04:53:00,25.5,20.2,30.50,SSW,202,0.0,0.0,80,0.00,,,0.00,WUHU21623XXSP,2013-01-10 09:53:00,
2013-01-10 04:58:00,25.3,20.1,30.50,SSW,202,0.0,0.0,80,0.00,,,0.00,WUHU21623XXSP,2013-01-10 09:58:00,
2013-01-10 05:03:00,25.2,19.9,30.50,SSW,202,0.0,0.0,80,0.00,,,0.00,WUHU21623XXSP,2013-01-10 10:03:00,
2013-01-10 05:08:00,25.0,19.9,30.51,SSW,202,0.0,0.0,80,0.00,,,0.00,WUHU21623XXSP,2013-01-10 10:08:00,
2013-01-10 05:13:00,25.0,19.7,30.51,SSW,202,0.0,0.0,80,0.00,,,0.00,WUHU21623XXSP,2013-01-10 10:13:00,
2013-01-10 05:18:00,24.6,19.7,30.50,SSW,202,0.0,0.0,81,0.00,,,0.00,WUHU21623XXSP,2013-01-10 10:18:00,
2013-01-10 05:23:00,24.6,19.7,30.50,SSW,202,0.0,0.0,81,0.00,,,0.00,WUHU21623XXSP,2013-01-10 10:23:00,
2013-01-10 05:28:00,24.6,19.7,30.50,SSW,202,0.0,0.0,81,0.00,,,0.00,WUHU21623XXSP,2013-01-10 10:28:00,
2013-01-10 05:33:00,24.6,19.7,30.50,SSW,202,0.0,0.0,81,0.00,,,0.00,WUHU21623XXSP,2013-01-10 10:33:00,
2013-01-10 05:38:00,24.6,19.7,30.50,SSW,202,0.0,0.0,81,0.00,,,0.00,WUHU21623XXSP,2013-01-10 10:38:00,
2013-01-10 05:43:00,24.6,19.7,30.50,SSW,202,0.0,0.0,81,0.00,,,0.00,WUHU21623XXSP,2013-01-10 10:43:00,
2013-01-10 05:48:00,24.6,19.9,30.50,SSW,202,0.0,0.0,82,0.00,,,0.00,WUHU21623XXSP,2013-01-10 10:48:00,
2013-01-10 05:53:00,24.6,19.9,30.50,SSW,202,0.0,0.0,82,0.00,,,0.00,WUHU21623XXSP,2013-01-10 10:53:00,
2013-01-10 05:58:00,24.6,19.9,30.50,SSW,202,0.0,0.0,82,0.00,,,0.00,WUHU21623XXSP,2013-01-10 10:58:00,
2013-01-10 06:03:00,24.6,19.9,30.50,SSW,202,0.0,0.0,82,0.00,,,0.00,WUHU21623XXSP,2013-01-10 11:03:00,
2013-01-10 06:08:00,24.4,19.8,30.50,SSW,202,0.0,0.0,82,0.00,,,0.00,WUHU21623XXSP,2013-01-10 11:08:00,
2013-01-10 06:13:00,24.4,19.8,30.50,SSW,202,0.0,0.0,82,0.00,,,0.00,WUHU21623XXSP,2013-01-10 11:13:00,
2013-01-10 06:18:00,24.1,19.4,30.51,SSW,202,0.0,0.0,82,0.00,,,0.00,WUHU21623XXSP,2013-01-10 11:18:00,
2013-01-10 06:23:00,24.1,19.4,30.51,SSW,202,0.0,0.0,82,0.00,,,0.00,WUHU21623XXSP,2013-01-10 11:23:00,
2013-01-10 06:28:00,24.1,19.4,30.52,SSW,202,0.0,0.0,82,0.00,,,0.00,WUHU21623XXSP,2013-01-10 11:28:00,
2013-01-10 06:33:00,24.1,19.4,30.52,SSW,202,0.0,0.0,82,0.00,,,0.00,WUHU21623XXSP,2013-01-10 11:33:00,
2013-01-10 06:38:00,24.1,19.7,30.52,SSW,202,0.0,0.0,83,0.00,,,0.00,WUHU21623XXSP,2013-01-10 11:38:00,
2013-01-10 06:43:00,24.1,19.7,30.52,SSW,202,0.0,0.0,83,0.00,,,0.00,WUHU21623XXSP,2013-01-10 11:43:00,
2013-01-10 06:48:00,24.1,19.7,30.53,SSW,202,0.0,0.0,83,0.00,,,0.00,WUHU21623XXSP,2013-01-10 11:48:00,
2013-01-10 06:53:00,23.9,19.7,30.53,SSW,202,0.0,0.0,83,0.00,,,0.00,WUHU21623XXSP,2013-01-10 11:53:00,
2013-01-10 06:58:00,23.9,19.5,30.53,SSW,202,0.0,0.0,83,0.00,,,0.00,WUHU21623XXSP,2013-01-10 11:58:00,
2013-01-10 07:03:00,23.9,19.5,30.53,SSW,202,0.0,0.0,83,0.00,,,0.00,WUHU21623XXSP,2013-01-10 12:03:00,
2013-01-10 07:08:00,23.9,19.5,30.53,SSW,202,0.0,0.0,83,0.00,,,0.00,WUHU21623XXSP,2013-01-10 12:08:00,
2013-01-10 07:13:00,23.7,19.3,30.53,SSW,202,0.0,0.0,83,0.00,,,0.00,WUHU21623XXSP,2013-01-10 12:13:00,
2013-01-10 07:18:00,23.7,19.3,30.53,SSW,202,0.0,0.0,83,0.00,,,0.00,WUHU21623XXSP,2013-01-10 12:18:00,
2013-01-10 07:23:00,23.7,19.3,30.53,SSW,202,0.0,0.0,83,0.00,,,0.00,WUHU21623XXSP,2013-01-10 12:23:00,
2013-01-10 07:28:00,23.7,19.3,30.53,SSW,202,0.0,0.0,83,0.00,,,0.00,WUHU21623XXSP,2013-01-10 12:28:00,
2013-01-10 07:33:00,23.7,19.3,30.53,SSW,202,0.0,0.0,83,0.00,,,0.00,WUHU21623XXSP,2013-01-10 12:33:00,
2013-01-10 07:38:00,23.7,19.3,30.54,SSW,202,0.0,0.0,83,0.00,,,0.00,WUHU21623XXSP,2013-01-10 12:38:00,
2013-01-10 07:43:00,23.7,19.3,30.54,SSW,202,0.0,0.0,83,0.00,,,0.00,WUHU21623XXSP,2013-01-10 12:43:00,
2013-01-10 07:48:00,23.7,19.3,30.54,SSW,202,0.0,0.0,83,0.00,,,0.00,WUHU21623XXSP,2013-01-10 12:48:00,
2013-01-10 07:53:00,23.7,19.3,30.54,SSW,202,0.0,0.0,83,0.00,,,0.00,WUHU21623XXSP,2013-01-10 12:53:00,
2013-01-10 07:58:00,23.7,19.3,30.54,SSW,202,0.0,0.0,83,0.00,,,0.00,WUHU21623XXSP,2013-01-10 12:58:00,
2013-01-10 08:03:00,23.7,19.3,30.54,SSW,202,0.0,0.0,83,0.00,,,0.00,WUHU21623XXSP,2013-01-10 13:03:00,
2013-01-10 08:08:00,23.7,19.3,30.54,SSW,202,0.0,0.0,83,0.00,,,0.00,WUHU21623XXSP,2013-01-10 13:08:00,
2013-01-10 08:13:00,23.7,19.3,30.54,SSW,202,0.0,0.0,83,0.00,,,0.00,WUHU21623XXSP,2013-01-10 13:13:00,
2013-01-10 08:18:00,23.7,19.6,30.54,SSW,202,0.0,0.0,84,0.00,,,0.00,WUHU21623XXSP,2013-01-10 13:18:00,
2013-01-10 08:23:00,23.7,19.6,30.54,SSW,202,0.0,0.0,84,0.00,,,0.00,WUHU21623XXSP,2013-01-10 13:23:00,
2013-01-10 08:28:00,23.7,19.6,30.54,SSW,202,0.0,0.0,84,0.00,,,0.00,WUHU21623XXSP,2013-01-10 13:28:00,
2013-01-10 08:33:00,23.7,19.6,30.54,SSW,202,0.0,0.0,84,0.00,,,0.00,WUHU21623XXSP,2013-01-10 13:33:00,
2013-01-10 08:38:00,23.9,19.8,30.53,SSW,202,0.0,0.0,84,0.00,,,0.00,WUHU21623XXSP,2013-01-10 13:38:00,
2013-01-10 08:43:00,23.9,19.8,30.53,SSW,202,0.0,0.0,84,0.00,,,0.00,WUHU21623XXSP,2013-01-10 13:43:00,
2013-01-10 08:48:00,23.9,19.8,30.54,SSW,202,0.0,0.0,84,0.00,,,0.00,WUHU21623XXSP,2013-01-10 13:48:00,
2013-01-10 08:53:00,24.1,19.9,30.54,SSW,202,0.0,0.0,84,0.00,,,0.00,WUHU21623XXSP,2013-01-10 13:53:00,
2013-01-10 08:58:00,24.1,19.9,30.54,SSW,202,0.0,0.0,84,0.00,,,0.00,WUHU21623XXSP,2013-01-10 13:58:00,
2013-01-10 09:03:00,24.4,20.6,30.55,SSW,202,0.0,0.0,85,0.00,,,0.00,WUHU21623XXSP,2013-01-10 14:03:00,
2013-01-10 09:08:00,24.4,20.6,30.54,SSW,202,0.0,0.0,85,0.00,,,0.00,WUHU21623XXSP,2013-01-10 14:08:00,
2013-01-10 09:13:00,24.6,20.8,30.54,SSW,202,0.0,0.0,85,0.00,,,0.00,WUHU21623XXSP,2013-01-10 14:13:00,
2013-01-10 09:18:00,25.0,20.8,30.55,SSW,202,0.0,0.0,85,0.00,,,0.00,WUHU21623XXSP,2013-01-10 14:18:00,
2013-01-10 09:23:00,25.0,21.1,30.55,SSW,202,0.0,0.0,85,0.00,,,0.00,WUHU21623XXSP,2013-01-10 14:23:00,
2013-01-10 09:28:00,25.2,21.5,30.55,SSW,202,0.0,0.0,86,0.00,,,0.00,WUHU21623XXSP,2013-01-10 14:28:00,
2013-01-10 09:33:00,25.7,22.1,30.55,SSW,202,0.0,0.0,86,0.00,,,0.00,WUHU21623XXSP,2013-01-10 14:33:00,
2013-01-10 09:38:00,26.2,22.6,30.55,SSW,202,0.0,0.0,86,0.00,,,0.00,WUHU21623XXSP,2013-01-10 14:38:00,
2013-01-10 09:43:00,26.4,22.6,30.55,SSW,202,0.0,0.0,86,0.00,,,0.00,WUHU21623XXSP,2013-01-10 14:43:00,
2013-01-10 09:48:00,27.0,23.3,30.56,SSW,202,0.0,0.0,86,0.00,,,0.00,WUHU21623XXSP,2013-01-10 14:48:00,
2013-01-10 09:53:00,27.3,23.6,30.55,SSW,202,0.0,0.0,86,0.00,,,0.00,WUHU21623XXSP,2013-01-10 14:53:00,
2013-01-10 09:58:00,27.7,24.3,30.55,SSW,202,0.0,0.0,87,0.00,,,0.00,WUHU21623XXSP,2013-01-10 14:58:00,
2013-01-10 10:03:00,28.0,24.7,30.55,SSW,202,0.0,0.0,87,0.00,,,0.00,WUHU21623XXSP,2013-01-10 15:03:00,
2013-01-10 10:08:00,28.4,24.8,30.55,SSW,202,0.0,0.0,87,0.00,,,0.00,WUHU21623XXSP,2013-01-10 15:08:00,
2013-01-10 10:13:00,28.8,25.2,30.55,SSW,202,0.0,0.0,87,0.00,,,0.00,WUHU21623XXSP,2013-01-10 15:13:00,
2013-01-10 10:18:00,29.5,26.1,30.55,SSE,157,0.0,0.0,87,0.00,,,0.00,WUHU21623XXSP,2013-01-10 15:18:00,
2013-01-10 10:23:00,30.0,26.6,30.55,SSE,157,0.0,0.0,87,0.00,,,0.00,WUHU21623XXSP,2013-01-10 15:23:00,
2013-01-10 10:28:00,30.2,26.8,30.54,SSE,157,0.0,0.0,87,0.00,,,0.00,WUHU21623XXSP,2013-01-10 15:28:00,
2013-01-10 10:33:00,31.3,27.9,30.55,South,180,3.1,3.1,87,0.00,,,0.00,WUHU21623XXSP,2013-01-10 15:33:00,
2013-01-10 10:38:00,31.6,28.3,30.55,South,180,0.0,3.1,87,0.00,,,0.00,WUHU21623XXSP,2013-01-10 15:38:00,
2013-01-10 10:43:00,32.2,28.5,30.54,South,180,0.0,0.0,86,0.00,,,0.00,WUHU21623XXSP,2013-01-10 15:43:00,
2013-01-10 10:48:00,32.4,28.9,30.54,South,180,0.0,0.0,87,0.00,,,0.00,WUHU21623XXSP,2013-01-10 15:48:00,
2013-01-10 10:53:00,32.5,29.1,30.53,South,180,0.0,0.0,87,0.00,,,0.00,WUHU21623XXSP,2013-01-10 15:53:00,
2013-01-10 10:58:00,32.7,29.0,30.54,South,180,0.0,0.0,86,0.00,,,0.00,WUHU21623XXSP,2013-01-10 15:58:00,
2013-01-10 11:03:00,33.1,29.1,30.53,South,180,0.0,0.0,86,0.00,,,0.00,WUHU21623XXSP,2013-01-10 16:03:00,
2013-01-10 11:08:00,33.6,29.5,30.53,South,180,0.7,0.7,85,0.00,,,0.00,WUHU21623XXSP,2013-01-10 16:08:00,
2013-01-10 11:13:00,34.0,29.8,30.53,South,180,0.9,0.9,85,0.00,,,0.00,WUHU21623XXSP,2013-01-10 16:13:00,
2013-01-10 11:18:00,34.3,29.7,30.52,South,180,0.0,0.9,84,0.00,,,0.00,WUHU21623XXSP,2013-01-10 16:18:00,
2013-01-10 11:23:00,34.5,29.6,30.52,South,180,3.8,3.8,83,0.00,,,0.00,WUHU21623XXSP,2013-01-10 16:23:00,
2013-01-10 11:28:00,35.2,29.9,30.52,NNE,22,1.3,3.8,81,0.00,,,0.00,WUHU21623XXSP,2013-01-10 16:28:00,
2013-01-10 11:33:00,35.8,30.2,30.52,SSE,157,7.8,7.8,80,0.00,,,0.00,WUHU21623XXSP,2013-01-10 16:33:00,
2013-01-10 11:38:00,36.3,30.2,30.52,SSE,157,7.8,7.8,78,0.00,,,0.00,WUHU21623XXSP,2013-01-10 16:38:00,
2013-01-10 11:44:00,36.9,30.0,30.51,SSE,157,4.0,7.8,76,0.00,,,0.00,WUHU21623XXSP,2013-01-10 16:44:00,
2013-01-10 11:49:00,37.2,30.0,30.51,SSE,157,6.7,7.8,75,0.00,,,0.00,WUHU21623XXSP,2013-01-10 16:49:00,
2013-01-10 11:54:00,37.8,30.0,30.50,SSE,157,7.4,7.4,74,0.00,,,0.00,WUHU21623XXSP,2013-01-10 16:54:00,
2013-01-10 11:59:00,38.1,30.2,30.50,NNE,22,7.6,7.6,73,0.00,,,0.00,WUHU21623XXSP,2013-01-10 16:59:00,
2013-01-10 12:04:00,38.8,30.2,30.49,SSE,157,4.3,7.6,71,0.00,,,0.00,WUHU21623XXSP,2013-01-10 17:04:00,
2013-01-10 12:09:00,39.0,30.0,30.50,SSE,157,5.1,8.1,70,0.00,,,0.00,WUHU21623XXSP,2013-01-10 17:09:00,
2013-01-10 12:14:00,39.4,30.4,30.49,SSE,157,4.7,8.1,70,0.00,,,0.00,WUHU21623XXSP,2013-01-10 17:14:00,
2013-01-10 12:19:00,39.7,30.2,30.48,SSE,157,8.1,8.1,68,0.00,,,0.00,WUHU21623XXSP,2013-01-10 17:19:00,
2013-01-10 12:24:00,39.9,29.8,30.48,SSE,157,3.8,8.1,67,0.00,,,0.00,WUHU21623XXSP,2013-01-10 17:24:00,
2013-01-10 12:29:00,40.1,30.0,30.49,SSE,157,5.6,8.1,67,0.00,,,0.00,WUHU21623XXSP,2013-01-10 17:29:00,
2013-01-10 12:34:00,40.3,29.8,30.48,SSE,157,1.6,7.6,66,0.00,,,0.00,WUHU21623XXSP,2013-01-10 17:34:00,
2013-01-10 12:39:00,40.1,29.6,30.48,SSE,157,8.1,8.1,65,0.00,,,0.00,WUHU21623XXSP,2013-01-10 17:39:00,
2013-01-10 12:44:00,40.1,29.2,30.47,SSE,157,10.7,10.7,65,0.00,,,0.00,WUHU21623XXSP,2013-01-10 17:44:00,
2013-01-10 12:49:00,40.1,28.8,30.48,SSE,157,4.7,10.7,64,0.00,,,0.00,WUHU21623XXSP,2013-01-10 17:49:00,
2013-01-10 12:54:00,40.1,29.2,30.48,SSE,157,4.0,5.6,65,0.00,,,0.00,WUHU21623XXSP,2013-01-10 17:54:00,
2013-01-10 12:59:00,40.1,29.2,30.48,SSE,157,0.0,7.4,65,0.00,,,0.00,WUHU21623XXSP,2013-01-10 17:59:00,
2013-01-10 13:04:00,40.3,29.4,30.48,SSE,157,10.1,10.1,65,0.00,,,0.00,WUHU21623XXSP,2013-01-10 18:04:00,
2013-01-10 13:09:00,40.5,29.2,30.48,SSE,157,7.8,10.1,64,0.00,,,0.00,WUHU21623XXSP,2013-01-10 18:09:00,
2013-01-10 13:14:00,40.8,29.6,30.47,SSE,157,7.8,7.8,64,0.00,,,0.00,WUHU21623XXSP,2013-01-10 18:14:00,
2013-01-10 13:19:00,40.8,29.6,30.46,South,180,6.3,7.8,64,0.00,,,0.00,WUHU21623XXSP,2013-01-10 18:19:00,
2013-01-10 13:24:00,41.2,29.9,30.46,South,180,8.9,8.9,64,0.00,,,0.00,WUHU21623XXSP,2013-01-10 18:24:00,
2013-01-10 13:29:00,41.4,29.7,30.46,SSE,157,6.7,8.9,63,0.00,,,0.00,WUHU21623XXSP,2013-01-10 18:29:00,
2013-01-10 13:33:00,41.7,29.2,30.45,SSE,157,6.5,12.5,61,0.00,,,0.00,WUHU21623XXSP,2013-01-10 18:33:00,
2013-01-10 13:39:00,41.7,29.2,30.45,SSE,157,4.9,12.5,61,0.00,,,0.00,WUHU21623XXSP,2013-01-10 18:39:00,
2013-01-10 13:43:00,41.9,29.0,30.45,SSE,157,3.6,7.8,60,0.00,,,0.00,WUHU21623XXSP,2013-01-10 18:43:00,
2013-01-10 13:48:00,42.1,29.2,30.44,South,180,7.4,7.8,60,0.00,,,0.00,WUHU21623XXSP,2013-01-10 18:48:00,
2013-01-10 13:53:00,42.4,29.4,30.44,South,180,9.4,9.4,59,0.00,,,0.00,WUHU21623XXSP,2013-01-10 18:53:00,
2013-01-10 13:59:00,42.6,28.8,30.43,South,180,2.9,9.4,58,0.00,,,0.00,WUHU21623XXSP,2013-01-10 18:59:00,
2013-01-10 14:03:00,43.0,29.1,30.43,SSE,157,6.3,6.3,58,0.00,,,0.00,WUHU21623XXSP,2013-01-10 19:03:00,
2013-01-10 14:08:00,43.3,29.1,30.42,South,180,8.5,8.5,57,0.00,,,0.00,WUHU21623XXSP,2013-01-10 19:08:00,
2013-01-10 14:13:00,43.5,29.2,30.42,SSE,157,9.6,9.6,57,0.00,,,0.00,WUHU21623XXSP,2013-01-10 19:13:00,
2013-01-10 14:18:00,43.7,29.4,30.42,SSE,157,8.1,9.6,57,0.00,,,0.00,WUHU21623XXSP,2013-01-10 19:18:00,
2013-01-10 14:23:00,43.9,29.1,30.42,SSE,157,8.3,8.3,56,0.00,,,0.00,WUHU21623XXSP,2013-01-10 19:23:00,
2013-01-10 14:29:00,43.9,29.1,30.42,NNE,22,1.6,8.3,56,0.00,,,0.00,WUHU21623XXSP,2013-01-10 19:29:00,
2013-01-10 14:34:00,43.9,29.6,30.42,SSE,157,3.4,7.2,57,0.00,,,0.00,WUHU21623XXSP,2013-01-10 19:34:00,
2013-01-10 14:39:00,43.7,29.4,30.42,South,180,6.7,7.2,57,0.00,,,0.00,WUHU21623XXSP,2013-01-10 19:39:00,
2013-01-10 14:44:00,43.7,29.4,30.42,SSE,157,7.2,8.1,57,0.00,,,0.00,WUHU21623XXSP,2013-01-10 19:44:00,
2013-01-10 14:49:00,43.5,29.2,30.42,SSE,157,3.6,8.1,57,0.00,,,0.00,WUHU21623XXSP,2013-01-10 19:49:00,
2013-01-10 14:54:00,43.5,29.2,30.42,SSE,157,4.9,4.9,57,0.00,,,0.00,WUHU21623XXSP,2013-01-10 19:54:00,
2013-01-10 14:59:00,43.2,28.9,30.41,SSE,157,8.1,11.0,57,0.00,,,0.00,WUHU21623XXSP,2013-01-10 19:59:00,
2013-01-10 15:04:00,43.0,28.7,30.41,South,180,7.4,11.0,57,0.00,,,0.00,WUHU21623XXSP,2013-01-10 20:04:00,
2013-01-10 15:09:00,42.8,29.0,30.41,SSE,157,3.8,8.1,58,0.00,,,0.00,WUHU21623XXSP,2013-01-10 20:09:00,
2013-01-10 15:14:00,42.6,28.8,30.41,South,180,6.0,7.6,58,0.00,,,0.00,WUHU21623XXSP,2013-01-10 20:14:00,
2013-01-10 15:19:00,42.6,28.8,30.41,SSE,157,4.9,7.6,58,0.00,,,0.00,WUHU21623XXSP,2013-01-10 20:19:00,
2013-01-10 15:24:00,43.0,29.1,30.41,NNE,22,8.9,8.9,58,0.00,,,0.00,WUHU21623XXSP,2013-01-10 20:24:00,
2013-01-10 15:29:00,43.5,29.2,30.40,SSE,157,8.5,12.8,57,0.00,,,0.00,WUHU21623XXSP,2013-01-10 20:29:00,
2013-01-10 15:34:00,43.7,29.0,30.40,SSE,157,6.9,12.8,56,0.00,,,0.00,WUHU21623XXSP,2013-01-10 20:34:00,
2013-01-10 15:39:00,43.7,29.0,30.40,South,180,9.8,9.8,56,0.00,,,0.00,WUHU21623XXSP,2013-01-10 20:39:00,
2013-01-10 15:44:00,43.5,28.8,30.40,South,180,0.9,9.8,56,0.00,,,0.00,WUHU21623XXSP,2013-01-10 20:44:00,
2013-01-10 15:49:00,43.3,28.6,30.40,SSE,157,3.4,4.3,56,0.00,,,0.00,WUHU21623XXSP,2013-01-10 20:49:00,
2013-01-10 15:54:00,43.0,28.3,30.40,South,180,7.6,7.8,56,0.00,,,0.00,WUHU21623XXSP,2013-01-10 20:54:00,
2013-01-10 15:59:00,42.6,28.4,30.40,SSE,157,0.4,8.7,57,0.00,,,0.00,WUHU21623XXSP,2013-01-10 20:59:00,
2013-01-10 16:04:00,42.1,27.9,30.40,SSE,157,0.0,8.7,57,0.00,,,0.00,WUHU21623XXSP,2013-01-10 21:04:00,
2013-01-10 16:09:00,42.1,27.9,30.40,SSE,157,2.7,3.1,57,0.00,,,0.00,WUHU21623XXSP,2013-01-10 21:09:00,
2013-01-10 16:14:00,41.5,27.4,30.39,SSE,157,3.6,5.6,57,0.00,,,0.00,WUHU21623XXSP,2013-01-10 21:14:00,
2013-01-10 16:19:00,41.2,27.4,30.40,SSE,157,8.9,8.9,57,0.00,,,0.00,WUHU21623XXSP,2013-01-10 21:19:00,
2013-01-10 16:24:00,40.8,27.1,30.39,SSE,157,8.3,8.9,58,0.00,,,0.00,WUHU21623XXSP,2013-01-10 21:24:00,
2013-01-10 16:29:00,40.5,27.2,30.39,SSE,157,6.7,8.3,59,0.00,,,0.00,WUHU21623XXSP,2013-01-10 21:29:00,
2013-01-10 16:34:00,40.1,26.9,30.39,South,180,8.3,8.3,59,0.00,,,0.00,WUHU21623XXSP,2013-01-10 21:34:00,
2013-01-10 16:39:00,39.7,26.5,30.39,South,180,3.8,8.3,59,0.00,,,0.00,WUHU21623XXSP,2013-01-10 21:39:00,
2013-01-10 16:44:00,39.6,27.0,30.39,South,180,3.4,8.1,60,0.00,,,0.00,WUHU21623XXSP,2013-01-10 21:44:00,
2013-01-10 16:49:00,39.4,26.6,30.38,SSE,157,6.5,8.1,60,0.00,,,0.00,WUHU21623XXSP,2013-01-10 21:49:00,
2013-01-10 16:54:00,39.0,26.3,30.38,South,180,5.1,7.8,60,0.00,,,0.00,WUHU21623XXSP,2013-01-10 21:54:00,
2013-01-10 16:59:00,39.0,26.6,30.37,SSE,157,5.1,5.8,61,0.00,,,0.00,WUHU21623XXSP,2013-01-10 21:59:00,
2013-01-10 17:04:00,38.8,26.5,30.38,South,180,4.7,5.1,61,0.00,,,0.00,WUHU21623XXSP,2013-01-10 22:04:00,
2013-01-10 17:09:00,38.5,26.5,30.38,SSE,157,5.6,5.6,62,0.00,,,0.00,WUHU21623XXSP,2013-01-10 22:09:00,
2013-01-10 17:14:00,38.5,26.9,30.37,SSE,157,5.1,7.8,63,0.00,,,0.00,WUHU21623XXSP,2013-01-10 22:14:00,
2013-01-10 17:19:00,38.3,26.7,30.37,SSE,157,0.2,7.8,63,0.00,,,0.00,WUHU21623XXSP,2013-01-10 22:19:00,
2013-01-10 17:24:00,38.1,26.6,30.37,SSE,157,6.5,9.6,63,0.00,,,0.00,WUHU21623XXSP,2013-01-10 22:24:00,
2013-01-10 17:29:00,37.9,26.8,30.38,SSE,157,2.9,9.6,64,0.00,,,0.00,WUHU21623XXSP,2013-01-10 22:29:00,
2013-01-10 17:34:00,37.8,26.6,30.38,SSE,157,6.0,6.0,64,0.00,,,0.00,WUHU21623XXSP,2013-01-10 22:34:00,
2013-01-10 17:39:00,37.6,26.9,30.38,SSE,157,2.0,6.0,65,0.00,,,0.00,WUHU21623XXSP,2013-01-10 22:39:00,
2013-01-10 17:44:00,37.4,26.7,30.37,SSE,157,6.7,6.7,65,0.00,,,0.00,WUHU21623XXSP,2013-01-10 22:44:00,
2013-01-10 17:49:00,37.2,26.5,30.37,SSE,157,2.0,6.7,65,0.00,,,0.00,WUHU21623XXSP,2013-01-10 22:49:00,
2013-01-10 17:54:00,37.2,26.5,30.37,South,180,0.0,2.2,65,0.00,,,0.00,WUHU21623XXSP,2013-01-10 22:54:00,
2013-01-10 17:59:00,37.2,26.9,30.36,NE,45,8.5,8.5,66,0.00,,,0.00,WUHU21623XXSP,2013-01-10 22:59:00,
2013-01-10 18:04:00,37.0,27.1,30.36,South,180,2.7,8.5,67,0.00,,,0.00,WUHU21623XXSP,2013-01-10 23:04:00,
2013-01-10 18:09:00,37.0,27.1,30.36,NNE,22,3.1,6.5,67,0.00,,,0.00,WUHU21623XXSP,2013-01-10 23:09:00,
2013-01-10 18:14:00,36.7,26.7,30.35,South,180,3.1,3.1,67,0.00,,,0.00,WUHU21623XXSP,2013-01-10 23:14:00,
2013-01-10 18:19:00,36.7,27.1,30.35,SSE,157,5.8,5.8,68,0.00,,,0.00,WUHU21623XXSP,2013-01-10 23:19:00,
2013-01-10 18:24:00,36.7,27.1,30.35,SSE,157,1.6,6.7,68,0.00,,,0.00,WUHU21623XXSP,2013-01-10 23:24:00,
2013-01-10 18:29:00,36.5,26.9,30.35,NNE,22,3.8,6.7,68,0.00,,,0.00,WUHU21623XXSP,2013-01-10 23:29:00,
2013-01-10 18:34:00,36.3,27.1,30.35,South,180,5.1,5.1,69,0.00,,,0.00,WUHU21623XXSP,2013-01-10 23:34:00,
2013-01-10 18:39:00,36.3,27.1,30.35,South,180,7.4,7.4,69,0.00,,,0.00,WUHU21623XXSP,2013-01-10 23:39:00,
2013-01-10 18:44:00,36.3,27.1,30.34,NNE,22,0.0,7.4,70,0.00,,,0.00,WUHU21623XXSP,2013-01-10 23:44:00,
2013-01-10 18:49:00,36.1,27.3,30.33,NE,45,3.8,6.9,70,0.00,,,0.00,WUHU21623XXSP,2013-01-10 23:49:00,
2013-01-10 18:54:00,36.1,27.3,30.33,SSE,157,7.4,7.4,70,0.00,,,0.00,WUHU21623XXSP,2013-01-10 23:54:00,
2013-01-10 18:59:00,36.0,27.1,30.33,NE,45,4.0,7.4,71,0.00,,,0.00,WUHU21623XXSP,2013-01-10 23:59:00,
2013-01-10 19:04:00,35.8,27.3,30.33,NNE,22,4.7,4.7,71,0.00,,,0.00,WUHU21623XXSP,2013-01-11 00:04:00,
2013-01-10 19:09:00,35.8,27.3,30.32,NE,45,2.2,7.8,71,0.00,,,0.00,WUHU21623XXSP,2013-01-11 00:09:00,
2013-01-10 19:14:00,35.8,27.3,30.32,SSE,157,4.3,7.8,72,0.00,,,0.00,WUHU21623XXSP,2013-01-11 00:14:00,
2013-01-10 19:19:00,35.4,27.2,30.32,NNE,22,1.3,7.6,72,0.00,,,0.00,WUHU21623XXSP,2013-01-11 00:19:00,
2013-01-10 19:24:00,35.4,27.2,30.32,South,180,4.9,7.6,72,0.00,,,0.00,WUHU21623XXSP,2013-01-11 00:24:00,
2013-01-10 19:29:00,35.4,27.2,30.32,South,180,4.9,6.5,72,0.00,,,0.00,WUHU21623XXSP,2013-01-11 00:29:00,
2013-01-10 19:34:00,35.4,27.2,30.32,SSE,157,7.6,7.6,72,0.00,,,0.00,WUHU21623XXSP,2013-01-11 00:34:00,
2013-01-10 19:39:00,35.4,27.6,30.32,SSE,157,7.6,7.6,73,0.00,,,0.00,WUHU21623XXSP,2013-01-11 00:39:00,
2013-01-10 19:44:00,35.4,27.6,30.33,SSE,157,2.9,7.6,73,0.00,,,0.00,WUHU21623XXSP,2013-01-11 00:44:00,
2013-01-10 19:49:00,35.4,27.4,30.32,South,180,2.9,5.8,73,0.00,,,0.00,WUHU21623XXSP,2013-01-11 00:49:00,
2013-01-10 19:54:00,35.2,27.4,30.32,SSE,157,7.8,7.8,74,0.00,,,0.00,WUHU21623XXSP,2013-01-11 00:54:00,
2013-01-10 19:59:00,35.2,27.7,30.32,South,180,2.0,7.8,74,0.00,,,0.00,WUHU21623XXSP,2013-01-11 00:59:00,
2013-01-10 20:04:00,35.2,27.7,30.31,NNE,22,2.5,6.5,74,0.00,,,0.00,WUHU21623XXSP,2013-01-11 01:04:00,
2013-01-10 20:10:00,35.2,27.7,30.31,South,180,3.6,3.6,74,0.00,,,0.00,WUHU21623XXSP,2013-01-11 01:10:00,
2013-01-10 20:15:00,35.2,27.7,30.31,SSE,157,3.1,3.6,74,0.00,,,0.00,WUHU21623XXSP,2013-01-11 01:15:00,
2013-01-10 20:20:00,35.2,27.7,30.31,SSE,157,6.5,6.5,74,0.00,,,0.00,WUHU21623XXSP,2013-01-11 01:20:00,
2013-01-10 20:25:00,35.2,27.7,30.31,South,180,8.1,8.1,74,0.00,,,0.00,WUHU21623XXSP,2013-01-11 01:25:00,
2013-01-10 20:30:00,35.2,27.7,30.31,NNE,22,5.6,8.1,74,0.00,,,0.00,WUHU21623XXSP,2013-01-11 01:30:00,
2013-01-10 20:35:00,35.4,27.9,30.30,SSE,157,5.8,8.7,74,0.00,,,0.00,WUHU21623XXSP,2013-01-11 01:35:00,
2013-01-10 20:40:00,35.4,28.2,30.30,South,180,6.0,8.7,75,0.00,,,0.00,WUHU21623XXSP,2013-01-11 01:40:00,
2013-01-10 20:45:00,35.4,28.2,30.30,SSE,157,3.6,6.7,75,0.00,,,0.00,WUHU21623XXSP,2013-01-11 01:45:00,
2013-01-10 20:50:00,35.4,28.2,30.30,South,180,8.3,8.7,75,0.00,,,0.00,WUHU21623XXSP,2013-01-11 01:50:00,
2013-01-10 20:55:00,35.4,28.2,30.29,SSE,157,6.5,8.7,75,0.00,,,0.00,WUHU21623XXSP,2013-01-11 01:55:00,
2013-01-10 21:00:00,35.4,28.2,30.29,SSE,157,6.5,11.4,75,0.00,,,0.00,WUHU21623XXSP,2013-01-11 02:00:00,
2013-01-10 21:05:00,35.4,28.2,30.28,SSE,157,8.5,11.4,75,0.00,,,0.00,WUHU21623XXSP,2013-01-11 02:05:00,
2013-01-10 21:10:00,35.8,28.6,30.28,South,180,8.7,8.7,75,0.00,,,0.00,WUHU21623XXSP,2013-01-11 02:10:00,
2013-01-10 21:15:00,35.8,28.6,30.27,SSE,157,7.2,8.7,75,0.00,,,0.00,WUHU21623XXSP,2013-01-11 02:15:00,
2013-01-10 21:20:00,35.8,28.6,30.27,SSE,157,7.8,7.8,75,0.00,,,0.00,WUHU21623XXSP,2013-01-11 02:20:00,
2013-01-10 21:25:00,35.8,28.6,30.27,South,180,5.8,8.3,75,0.00,,,0.00,WUHU21623XXSP,2013-01-11 02:25:00,
2013-01-10 21:30:00,35.8,28.6,30.27,SSE,157,6.5,8.3,75,0.00,,,0.00,WUHU21623XXSP,2013-01-11 02:30:00,
2013-01-10 21:35:00,35.8,28.9,30.27,SSE,157,7.2,7.4,76,0.00,,,0.00,WUHU21623XXSP,2013-01-11 02:35:00,
2013-01-10 21:40:00,35.8,29.2,30.27,SSE,157,8.3,8.3,77,0.00,,,0.00,WUHU21623XXSP,2013-01-11 02:40:00,
2013-01-10 21:45:00,35.6,29.0,30.27,South,180,2.9,8.3,77,0.00,,,0.00,WUHU21623XXSP,2013-01-11 02:45:00,
2013-01-10 21:50:00,35.4,29.2,30.26,SSE,157,6.9,6.9,78,0.00,,,0.00,WUHU21623XXSP,2013-01-11 02:50:00,
2013-01-10 21:55:00,35.4,29.5,30.26,SSE,157,4.0,6.9,79,0.00,,,0.00,WUHU21623XXSP,2013-01-11 02:55:00,
2013-01-10 22:00:00,35.2,29.3,30.25,SSE,157,0.9,6.7,79,0.00,,,0.00,WUHU21623XXSP,2013-01-11 03:00:00,
2013-01-10 22:05:00,35.2,29.7,30.25,South,180,4.3,7.8,80,0.00,,,0.00,WUHU21623XXSP,2013-01-11 03:05:00,
2013-01-10 22:10:00,35.1,29.5,30.24,SSE,157,3.6,8.7,80,0.00,,,0.00,WUHU21623XXSP,2013-01-11 03:10:00,
2013-01-10 22:15:00,34.9,29.3,30.24,NNE,22,4.9,8.7,80,0.00,,,0.00,WUHU21623XXSP,2013-01-11 03:15:00,
2013-01-10 22:20:00,34.9,29.6,30.23,ENE,66,4.8,6.9,81,0.00,,,0.00,WUHU21623XXSP,2013-01-11 03:20:00,
2013-01-10 22:25:00,34.9,29.6,30.22,NE,45,6.9,6.9,81,0.00,,,0.00,WUHU21623XXSP,2013-01-11 03:25:00,
2013-01-10 22:30:00,34.9,29.9,30.21,SSE,157,5.1,8.3,82,0.00,,,0.00,WUHU21623XXSP,2013-01-11 03:30:00,
2013-01-10 22:35:00,34.9,29.9,30.21,SSE,157,4.9,8.3,82,0.00,,,0.00,WUHU21623XXSP,2013-01-11 03:35:00,
2013-01-10 22:40:00,34.9,29.9,30.21,SSE,157,8.5,8.5,82,0.00,,,0.00,WUHU21623XXSP,2013-01-11 03:40:00,
2013-01-10 22:45:00,34.7,30.0,30.21,SSE,157,7.4,8.5,83,0.00,,,0.00,WUHU21623XXSP,2013-01-11 03:45:00,
2013-01-10 22:50:00,34.7,30.0,30.21,NNE,22,8.7,9.6,83,0.00,,,0.00,WUHU21623XXSP,2013-01-11 03:50:00,
2013-01-10 22:55:00,34.9,30.2,30.21,SSE,157,6.9,9.6,83,0.00,,,0.00,WUHU21623XXSP,2013-01-11 03:55:00,
2013-01-10 23:00:00,34.9,30.2,30.20,South,180,4.9,8.7,83,0.00,,,0.00,WUHU21623XXSP,2013-01-11 04:00:00,
2013-01-10 23:05:00,34.9,30.2,30.19,NNE,22,5.4,7.4,83,0.00,,,0.00,WUHU21623XXSP,2013-01-11 04:05:00,
2013-01-10 23:10:00,34.9,30.2,30.18,South,180,7.8,7.8,83,0.00,,,0.00,WUHU21623XXSP,2013-01-11 04:10:00,
2013-01-10 23:15:00,34.9,30.5,30.18,SSE,157,5.6,8.9,84,0.00,,,0.00,WUHU21623XXSP,2013-01-11 04:15:00,
2013-01-10 23:20:00,34.9,30.5,30.18,SSE,157,3.1,8.9,84,0.00,,,0.00,WUHU21623XXSP,2013-01-11 04:20:00,
2013-01-10 23:25:00,34.9,30.5,30.18,South,180,10.5,10.5,84,0.00,,,0.00,WUHU21623XXSP,2013-01-11 04:25:00,
2013-01-10 23:30:00,34.9,30.5,30.18,South,180,3.6,10.5,84,0.00,,,0.00,WUHU21623XXSP,2013-01-11 04:30:00,
2013-01-10 23:35:00,34.9,30.5,30.17,South,180,1.8,4.7,84,0.00,,,0.00,WUHU21623XXSP,2013-01-11 04:35:00,
2013-01-10 23:40:00,34.9,30.5,30.16,South,180,7.8,7.8,84,0.00,,,0.00,WUHU21623XXSP,2013-01-11 04:40:00,
2013-01-10 23:45:00,34.9,30.5,30.15,SSE,157,5.6,7.8,84,0.00,,,0.00,WUHU21623XXSP,2013-01-11 04:45:00,
2013-01-10 23:50:00,35.2,30.6,30.15,South,180,4.0,6.5,84,0.00,,,0.00,WUHU21623XXSP,2013-01-11 04:50:00,
2013-01-10 23:55:00,35.2,30.8,30.14,SSE,157,4.5,7.4,84,0.00,,,0.00,WUHU21623XXSP,2013-01-11 04:55:00,